Time,TemperatureF,DewpointF,PressureIn,WindDirection,WindDirectionDegrees,WindSpeedMPH,WindSpeedGustMPH,Humidity,HourlyPrecipIn,Conditions,Clouds,dailyrainin,SoftwareType,DateUTC
2013-09-21 00:12:00,62.1,61.5,29.75,West,270,0.0,-999.0,98,-99.99,,,0.00,Acu-Link.com,2013-09-21 04:12:00,
2013-09-21 00:27:00,61.9,61.3,29.75,SSE,157,0.0,-999.0,98,-99.99,,,0.00,Acu-Link.com,2013-09-21 04:27:00,
2013-09-21 00:42:00,61.3,60.7,29.75,SW,225,0.0,-999.0,98,-99.99,,,0.00,Acu-Link.com,2013-09-21 04:42:00,
2013-09-21 00:57:00,61.7,61.1,29.75,NE,45,0.0,-999.0,98,-99.99,,,0.00,Acu-Link.com,2013-09-21 04:57:00,
2013-09-21 01:12:00,61.5,60.9,29.75,South,180,0.0,-999.0,98,-99.99,,,0.00,Acu-Link.com,2013-09-21 05:12:00,
2013-09-21 01:27:00,61.0,60.4,29.75,West,270,0.0,-999.0,98,-99.99,,,0.00,Acu-Link.com,2013-09-21 05:27:00,
2013-09-21 01:43:00,61.0,60.4,29.74,NE,45,0.0,-999.0,98,-99.99,,,0.00,Acu-Link.com,2013-09-21 05:43:00,
2013-09-21 01:58:00,60.8,60.2,29.74,WNW,292,0.0,-999.0,98,-99.99,,,0.00,Acu-Link.com,2013-09-21 05:58:00,
2013-09-21 02:13:00,60.4,59.8,29.74,WNW,292,0.0,-999.0,98,-99.99,,,0.00,Acu-Link.com,2013-09-21 06:13:00,
2013-09-21 02:28:00,60.3,59.7,29.73,WNW,292,0.0,-999.0,98,-99.99,,,0.00,Acu-Link.com,2013-09-21 06:28:00,
2013-09-21 02:44:00,59.9,59.3,29.73,ENE,67,0.0,-999.0,98,-99.99,,,0.00,Acu-Link.com,2013-09-21 06:44:00,
2013-09-21 02:59:00,59.7,59.1,29.72,NNW,337,0.0,-999.0,98,-99.99,,,0.00,Acu-Link.com,2013-09-21 06:59:00,
2013-09-21 03:14:00,59.7,59.1,29.72,NNW,337,0.0,-999.0,98,-99.99,,,0.00,Acu-Link.com,2013-09-21 07:14:00,
2013-09-21 03:29:00,59.4,58.8,29.71,NNW,337,0.0,-999.0,98,-99.99,,,0.00,Acu-Link.com,2013-09-21 07:29:00,
2013-09-21 03:44:00,59.4,58.8,29.70,NNW,337,0.0,-999.0,98,-99.99,,,0.00,Acu-Link.com,2013-09-21 07:44:00,
2013-09-21 04:00:00,59.4,58.8,29.69,NE,45,0.0,-999.0,98,-99.99,,,0.00,Acu-Link.com,2013-09-21 08:00:00,
2013-09-21 04:17:00,59.4,58.8,29.69,NE,45,0.0,-999.0,98,-99.99,,,0.00,Acu-Link.com,2013-09-21 08:17:00,
2013-09-21 04:33:00,59.2,58.6,29.69,NNW,337,0.0,-999.0,98,-99.99,,,0.00,Acu-Link.com,2013-09-21 08:33:00,
2013-09-21 04:48:00,59.2,58.6,29.69,NW,315,0.0,-999.0,98,-99.99,,,0.00,Acu-Link.com,2013-09-21 08:48:00,
2013-09-21 05:03:00,59.0,58.4,29.68,NE,45,0.0,-999.0,98,-99.99,,,0.00,Acu-Link.com,2013-09-21 09:03:00,
2013-09-21 05:18:00,59.5,58.9,29.68,NE,45,0.0,-999.0,98,-99.99,,,0.00,Acu-Link.com,2013-09-21 09:18:00,
2013-09-21 05:33:00,59.4,58.8,29.67,NE,45,0.0,-999.0,98,-99.99,,,0.00,Acu-Link.com,2013-09-21 09:33:00,
2013-09-21 05:48:00,58.8,58.2,29.66,ESE,112,0.0,-999.0,98,-99.99,,,0.00,Acu-Link.com,2013-09-21 09:48:00,
2013-09-21 06:04:00,58.8,58.2,29.66,NNE,22,0.0,-999.0,98,-99.99,,,0.00,Acu-Link.com,2013-09-21 10:04:00,
2013-09-21 06:19:00,59.4,58.8,29.66,NNE,22,0.0,-999.0,98,-99.99,,,0.00,Acu-Link.com,2013-09-21 10:19:00,
2013-09-21 06:34:00,59.4,58.8,29.66,NE,45,0.0,-999.0,98,-99.99,,,0.00,Acu-Link.com,2013-09-21 10:34:00,
2013-09-21 06:49:00,59.2,58.6,29.66,ENE,67,0.0,-999.0,98,-99.99,,,0.00,Acu-Link.com,2013-09-21 10:49:00,
2013-09-21 07:04:00,59.4,58.8,29.66,NW,315,0.0,-999.0,98,-99.99,,,0.00,Acu-Link.com,2013-09-21 11:04:00,
2013-09-21 07:20:00,59.7,59.1,29.66,NE,45,0.0,-999.0,98,-99.99,,,0.00,Acu-Link.com,2013-09-21 11:20:00,
2013-09-21 07:35:00,60.1,59.5,29.67,NE,45,0.0,-999.0,98,-99.99,,,0.00,Acu-Link.com,2013-09-21 11:35:00,
2013-09-21 08:05:00,62.1,61.5,29.66,WNW,292,0.0,-999.0,98,-99.99,,,0.00,Acu-Link.com,2013-09-21 12:05:00,
2013-09-21 08:20:00,63.0,62.4,29.66,East,90,0.0,-999.0,98,-99.99,,,0.00,Acu-Link.com,2013-09-21 12:20:00,
2013-09-21 08:36:00,63.3,62.7,29.66,NNE,22,0.0,-999.0,98,-99.99,,,0.00,Acu-Link.com,2013-09-21 12:36:00,
2013-09-21 08:51:00,63.9,63.3,29.66,ENE,67,0.0,-999.0,98,-99.99,,,0.00,Acu-Link.com,2013-09-21 12:51:00,
2013-09-21 09:06:00,64.4,63.8,29.66,SE,135,0.0,-999.0,98,-99.99,,,0.00,Acu-Link.com,2013-09-21 13:06:00,
2013-09-21 09:21:00,65.1,64.5,29.66,ESE,112,0.0,-999.0,98,-99.99,,,0.01,Acu-Link.com,2013-09-21 13:21:00,
2013-09-21 09:36:00,65.8,65.2,29.66,NE,45,0.0,-999.0,98,-99.99,,,0.01,Acu-Link.com,2013-09-21 13:36:00,
2013-09-21 09:52:00,66.2,65.6,29.65,SE,135,0.0,-999.0,98,-99.99,,,0.02,Acu-Link.com,2013-09-21 13:52:00,
2013-09-21 10:07:00,66.4,65.8,29.65,NNW,337,0.0,-999.0,98,-99.99,,,0.02,Acu-Link.com,2013-09-21 14:07:00,
2013-09-21 10:40:00,66.6,66.0,29.64,NE,45,0.0,-999.0,98,-99.99,,,0.03,Acu-Link.com,2013-09-21 14:40:00,
2013-09-21 10:56:00,68.2,67.6,29.63,SE,135,0.0,-999.0,98,-99.99,,,0.03,Acu-Link.com,2013-09-21 14:56:00,
2013-09-21 11:11:00,68.4,67.8,29.63,ENE,67,0.0,-999.0,98,-99.99,,,0.04,Acu-Link.com,2013-09-21 15:11:00,
2013-09-21 11:26:00,68.5,67.9,29.63,SE,135,1.1,-999.0,98,-99.99,,,0.05,Acu-Link.com,2013-09-21 15:26:00,
2013-09-21 11:41:00,68.5,67.9,29.62,SSE,157,0.0,-999.0,98,-99.99,,,0.08,Acu-Link.com,2013-09-21 15:41:00,
2013-09-21 11:56:00,68.9,68.3,29.62,ESE,112,1.7,-999.0,98,-99.99,,,0.09,Acu-Link.com,2013-09-21 15:56:00,
2013-09-21 12:12:00,68.5,67.9,29.61,ENE,67,1.1,-999.0,98,-99.99,,,0.10,Acu-Link.com,2013-09-21 16:12:00,
2013-09-21 12:27:00,68.2,67.6,29.61,NE,45,0.0,-999.0,98,-99.99,,,0.11,Acu-Link.com,2013-09-21 16:27:00,
2013-09-21 12:42:00,67.8,67.2,29.61,ENE,67,0.0,-999.0,98,-99.99,,,0.11,Acu-Link.com,2013-09-21 16:42:00,
2013-09-21 12:57:00,67.8,67.2,29.60,NNW,337,2.7,-999.0,98,-99.99,,,0.12,Acu-Link.com,2013-09-21 16:57:00,
2013-09-21 13:12:00,68.4,67.8,29.60,SSE,157,1.7,-999.0,98,-99.99,,,0.12,Acu-Link.com,2013-09-21 17:12:00,
2013-09-21 13:28:00,68.2,67.6,29.60,SW,225,0.0,-999.0,98,-99.99,,,0.13,Acu-Link.com,2013-09-21 17:28:00,
2013-09-21 13:43:00,68.4,67.8,29.59,SW,225,0.0,-999.0,98,-99.99,,,0.14,Acu-Link.com,2013-09-21 17:43:00,
2013-09-21 13:58:00,68.5,67.9,29.57,ESE,112,0.0,-999.0,98,-99.99,,,0.15,Acu-Link.com,2013-09-21 17:58:00,
2013-09-21 14:13:00,68.5,67.9,29.57,ESE,112,1.7,-999.0,98,-99.99,,,0.16,Acu-Link.com,2013-09-21 18:13:00,
2013-09-21 14:28:00,68.5,67.9,29.56,SSE,157,0.0,-999.0,98,-99.99,,,0.16,Acu-Link.com,2013-09-21 18:28:00,
2013-09-21 14:44:00,68.5,67.9,29.56,East,90,0.0,-999.0,98,-99.99,,,0.19,Acu-Link.com,2013-09-21 18:44:00,
2013-09-21 14:59:00,68.0,67.4,29.55,SSE,157,1.1,-999.0,98,-99.99,,,0.22,Acu-Link.com,2013-09-21 18:59:00,
2013-09-21 15:14:00,66.4,65.8,29.55,ENE,67,1.1,-999.0,98,-99.99,,,0.25,Acu-Link.com,2013-09-21 19:14:00,
2013-09-21 15:30:00,62.6,62.0,29.55,NNW,337,0.0,-999.0,98,-99.99,,,0.41,Acu-Link.com,2013-09-21 19:30:00,
2013-09-21 15:45:00,62.1,61.5,29.56,ESE,112,0.0,-999.0,98,-99.99,,,0.59,Acu-Link.com,2013-09-21 19:45:00,
2013-09-21 16:00:00,62.1,61.5,29.56,ESE,112,2.2,-999.0,98,-99.99,,,0.69,Acu-Link.com,2013-09-21 20:00:00,
2013-09-21 16:15:00,62.2,61.6,29.56,NE,45,2.2,-999.0,98,-99.99,,,0.75,Acu-Link.com,2013-09-21 20:15:00,
2013-09-21 16:30:00,62.4,61.8,29.55,West,270,0.0,-999.0,98,-99.99,,,0.82,Acu-Link.com,2013-09-21 20:30:00,
2013-09-21 16:46:00,62.6,62.0,29.55,South,180,1.7,-999.0,98,-99.99,,,0.90,Acu-Link.com,2013-09-21 20:46:00,
2013-09-21 17:01:00,62.4,61.8,29.55,SSE,157,0.0,-999.0,98,-99.99,,,0.95,Acu-Link.com,2013-09-21 21:01:00,
2013-09-21 17:16:00,62.4,61.8,29.55,NE,45,1.1,-999.0,98,-99.99,,,1.06,Acu-Link.com,2013-09-21 21:16:00,
2013-09-21 17:31:00,62.4,61.8,29.54,NNE,22,0.0,-999.0,98,-99.99,,,1.16,Acu-Link.com,2013-09-21 21:31:00,
2013-09-21 17:46:00,62.6,62.0,29.53,NE,45,0.0,-999.0,98,-99.99,,,1.25,Acu-Link.com,2013-09-21 21:46:00,
2013-09-21 18:02:00,62.8,62.2,29.51,East,90,0.0,-999.0,98,-99.99,,,1.29,Acu-Link.com,2013-09-21 22:02:00,
2013-09-21 18:17:00,62.8,62.2,29.52,SE,135,0.0,-999.0,98,-99.99,,,1.34,Acu-Link.com,2013-09-21 22:17:00,
2013-09-21 18:32:00,61.9,61.3,29.51,SW,225,0.0,-999.0,98,-99.99,,,1.36,Acu-Link.com,2013-09-21 22:32:00,
2013-09-21 18:47:00,61.9,61.3,29.52,South,180,0.0,-999.0,98,-99.99,,,1.40,Acu-Link.com,2013-09-21 22:47:00,
2013-09-21 19:02:00,61.9,61.3,29.53,ENE,67,0.0,-999.0,98,-99.99,,,1.41,Acu-Link.com,2013-09-21 23:02:00,
2013-09-21 19:18:00,61.9,61.3,29.52,SSE,157,1.1,-999.0,98,-99.99,,,1.41,Acu-Link.com,2013-09-21 23:18:00,
2013-09-21 19:33:00,62.1,61.5,29.51,SW,225,0.0,-999.0,98,-99.99,,,1.41,Acu-Link.com,2013-09-21 23:33:00,
2013-09-21 19:48:00,61.7,61.1,29.51,South,180,1.7,-999.0,98,-99.99,,,1.41,Acu-Link.com,2013-09-21 23:48:00,
2013-09-21 20:03:00,61.5,60.9,29.51,SSE,157,1.7,-999.0,98,-99.99,,,1.41,Acu-Link.com,2013-09-22 00:03:00,
2013-09-21 20:19:00,61.3,60.7,29.51,ESE,112,5.3,-999.0,98,-99.99,,,1.41,Acu-Link.com,2013-09-22 00:19:00,
2013-09-21 20:34:00,61.3,60.7,29.52,ESE,112,0.0,-999.0,98,-99.99,,,1.41,Acu-Link.com,2013-09-22 00:34:00,
2013-09-21 20:49:00,61.3,60.7,29.52,SSE,157,0.0,-999.0,98,-99.99,,,1.41,Acu-Link.com,2013-09-22 00:49:00,
2013-09-21 21:04:00,61.2,60.6,29.53,SSE,157,1.1,-999.0,98,-99.99,,,1.41,Acu-Link.com,2013-09-22 01:04:00,
2013-09-21 21:19:00,61.0,60.4,29.52,SSE,157,2.2,-999.0,98,-99.99,,,1.41,Acu-Link.com,2013-09-22 01:19:00,
2013-09-21 21:34:00,60.8,60.2,29.52,SE,135,1.7,-999.0,98,-99.99,,,1.41,Acu-Link.com,2013-09-22 01:34:00,
2013-09-21 21:49:00,60.6,60.0,29.53,East,90,2.2,-999.0,98,-99.99,,,1.41,Acu-Link.com,2013-09-22 01:49:00,
2013-09-21 22:05:00,60.6,60.0,29.53,South,180,2.2,-999.0,98,-99.99,,,1.41,Acu-Link.com,2013-09-22 02:05:00,
2013-09-21 22:20:00,60.3,59.7,29.53,ESE,112,1.7,-999.0,98,-99.99,,,1.41,Acu-Link.com,2013-09-22 02:20:00,
2013-09-21 22:35:00,59.9,59.3,29.54,SE,135,0.0,-999.0,98,-99.99,,,1.41,Acu-Link.com,2013-09-22 02:35:00,
2013-09-21 22:50:00,60.3,59.7,29.54,ESE,112,0.0,-999.0,98,-99.99,,,1.41,Acu-Link.com,2013-09-22 02:50:00,
2013-09-21 23:06:00,59.7,59.1,29.55,NNE,22,0.0,-999.0,98,-99.99,,,1.41,Acu-Link.com,2013-09-22 03:06:00,
2013-09-21 23:21:00,59.4,58.8,29.55,SSE,157,2.7,-999.0,98,-99.99,,,1.41,Acu-Link.com,2013-09-22 03:21:00,
2013-09-21 23:36:00,59.4,58.8,29.55,ESE,112,0.0,-999.0,98,-99.99,,,1.41,Acu-Link.com,2013-09-22 03:36:00,
2013-09-21 23:51:00,59.4,58.8,29.55,East,90,0.0,-999.0,98,-99.99,,,1.41,Acu-Link.com,2013-09-22 03:51:00,